This is the latest recevied weather packets stored in our database for station/object DL6JOE-10. If no packets are shown the sender has not sent any weather packets the latest 10 day(s).
| Time | Temp. | Humidity | Pressure | Rain* | Wind** | Luminosity | Snow |
|---|---|---|---|---|---|---|---|
| 1777551657 | 21.11° C | 19% | 971.1 hPa | - | - | - | - |
| 1777550757 | 21.11° C | 20% | 971.2 hPa | - | - | - | - |
| 1777549857 | 20.56° C | 20% | 971.3 hPa | - | - | - | - |
| 1777548957 | 20° C | 21% | 971.4 hPa | - | - | - | - |
| 1777548057 | 20° C | 21% | 971.4 hPa | - | - | - | - |
| 1777547156 | 20° C | 22% | 971.6 hPa | - | - | - | - |
| 1777546256 | 19.44° C | 22% | 971.7 hPa | - | - | - | - |
| 1777545356 | 18.89° C | 23% | 971.7 hPa | - | - | - | - |
| 1777544456 | 18.89° C | 22% | 971.8 hPa | - | - | - | - |
| 1777543556 | 18.33° C | 23% | 972 hPa | - | - | - | - |
| 1777542656 | 17.78° C | 24% | 972.1 hPa | - | - | - | - |
| 1777541756 | 17.78° C | 24% | 972.3 hPa | - | - | - | - |
| 1777540856 | 16.67° C | 25% | 972.3 hPa | - | - | - | - |
| 1777539956 | 16.11° C | 26% | 972.3 hPa | - | - | - | - |
| 1777539056 | 16.11° C | 26% | 972.2 hPa | - | - | - | - |
| 1777538156 | 15.56° C | 27% | 972.3 hPa | - | - | - | - |
| 1777537256 | 15° C | 28% | 972.3 hPa | - | - | - | - |
| 1777536355 | 14.44° C | 28% | 972.2 hPa | - | - | - | - |
| 1777535455 | 13.89° C | 29% | 972.3 hPa | - | - | - | - |
| 1777534555 | 13.33° C | 30% | 972.1 hPa | - | - | - | - |
| 1777533655 | 12.22° C | 31% | 972.1 hPa | - | - | - | - |
| 1777532755 | 11.67° C | 31% | 972.1 hPa | - | - | - | - |
| 1777531855 | 11.11° C | 32% | 972.2 hPa | - | - | - | - |
| 1777530955 | 10.56° C | 33% | 972.2 hPa | - | - | - | - |
| 1777530055 | 10.56° C | 34% | 972.2 hPa | - | - | - | - |
* Rain since midnight (hover to see other rain measurements)
** Current wind speed in m/s (hover to see current wind gust speed)